YZ-1 R/B, 41929

Orbit data source: Space-Track

YZ-1 R/B, 41929 is space debris in HEO originally from a launch on Mon, 30 Mar 2015 UTC launched from the Xichang Space Center, China (XSC). Debris objects in space refer to the collection of defunct objects orbiting the Earth. Examples of debris include non-operational satellites, rocket bodies, and fragments generated from explosions, collisions, or faulty payload assembly.

Loading next visibility...
Identifier
41929, 2015-019C
Orbit
HEO
Country
Flag of CNCN / PRC
Related business
Manufacturer
CALT
Mission
Spacecraft
Bus & Motor
YZ-1, Unknown motor
Mass
2,075 kg wet, 2,075 kg dry
Launch date (UTC)
2015-03-30 (11 years ago)
Launch vehicle
Unknown
Launch site
Xichang Space Center, China (XSC)
Object type
Payload
Rocket body
Debris
Shape & HBR
Double Cone, 2.0 m
Radar Cross Section
5.890 m², Large (>1 m²)

Expand to show TLE details & history
Last TLE update: in 3 days

TLE from in 3 days
0 YZ-1 R/B
1 41929U 15019C   26077.42619811 -.00000625  00000-0  00000-0 0  9999
2 41929  12.0566 104.1873 6849520 298.1053 358.7736  0.27916180 10513
Epoch: 2026-03-18T10:13Z
TLE epoch observation values (Epoch: 2026-03-18T10:13:43.516Z)
Latitude
-10.57375°
Longitude
74.40629°
Altitude
24,784.11 km
Speed
4.642 km/s
True Right ascension
02h 55m 18s
True Declination
-10° 33' 34"
Sunlit
Object was in daylight at epoch
Visualization orbit readout
Latitude
Unknown
Longitude
Unknown
Altitude
Unknown
Speed
Unknown
Apparent Right ascension
Unknown
Apparent Declination
Unknown
Sunlit
N/A
Visualization observer readout
Local Sidereal Time
14:19:30
Azimuth
Unknown
Elevation
Unknown
Doppler factor
Unknown
Orbital elements
Apogee altitude
160,253.339 km
Perigee altitude
24,778.189 km
Semi-major axis
98,893.901 km
Eccentricity
0.68495
Inclination
12.0566°
RAAN
104.1873°
Arg. of periapsis
298.1053°
True anomaly
351.02746°
Mean anomaly
358.7736°
Eccentric anomaly
356.11374°
Mean motion
0.06979 °/min
Orbital period
5,158.38 mins
BSTAR
0
Loading maneuver chart data...
Computing Atmospheric mass density...
Loading historical data...
Loading historical data...
Loading historical data...
Loading historical data...
Loading historical data...
Loading historical data...
Loading historical data...
Other satellites on launch #19 in the year 2015 (2015-03-30 UTC)

Documentation

Showing up to 5 results
|